Regional Weather Roundup
Issued by NWS

Home | Current Version | Previous Version | Graphics & Text | Print | Product List | Glossary On
Versions: 1 2 3 4 5 6 7 8 9 10 11 12 13 14 15 16 17 18 19 20 21 22 23 24 25 26 27 28 29 30 31 32 33 34 35 36 37 38 39 40 41 42 43 44 45 46 47 48 49 50
000
ASUS43 KMKX 080300
RWRWI

WISCONSIN REGIONAL WEATHER ROUNDUP
NATIONAL WEATHER SERVICE MILWAUKEE/SULLIVAN WI
900 PM CST WED DEC 07 2016

NOTE: "FAIR" INDICATES FEW OR NO CLOUDS BELOW 12,000 FEET WITH NO
SIGNIFICANT WEATHER AND/OR OBSTRUCTIONS TO VISIBILITY.

WIZ001-002-006>008-014>016-023>028-080400-
NORTHWEST WISCONSIN

CITY           SKY/WX    TMP DP  RH WIND       PRES   REMARKS
SUPERIOR ARPT  CLOUDY    19  13  78 W13       29.96R WCI   6
ASHLAND        LGT SNOW  18  14  84 SW17G28   29.92R FOG     WCI   3
HAYWARD        LGT SNOW  16  10  77 SW9       29.95S WCI   4
SIREN          FLURRIES  17  11  77 W14G20    30.02S WCI   3
CUMBERLAND     LGT SNOW  16  10  79 W15G23    30.00S WCI   1
RICE LAKE      FLURRIES  17  10  76 W14G24    30.03S WCI   2
CHETEK         LGT SNOW  16  10  77 W9        30.02S WCI   5
LADYSMITH      FLURRIES  17  11  77 W10       29.99S WCI   5
EAU CLAIRE     NOT AVBL
MENOMONIE      CLOUDY    18  10  70 W14G25    30.07R WCI   4
NEW RICHMOND   FLURRIES  16   9  71 W17       30.07S WCI   0
OSCEOLA        FLURRIES  17  10  71 W18G28    30.10S WCI   1
$$

WIZ003>005-009-010-017-018-080400-
NORTH CENTRAL WISCONSIN

CITY           SKY/WX    TMP DP  RH WIND       PRES   REMARKS
MANITOWISH WTR LGT SNOW  15  13  91 W10G17    29.85S WCI   2
ARBOR VITAE    LGT SNOW  18  13  81 W12G17    29.86S WCI   5
WOODRUFF       LGT SNOW  18  13  81 W12G17    29.86S WCI   5
RHINELANDER    CLOUDY    18  11  74 W16G23    29.88S WCI   3
EAGLE RIVER    LGT SNOW  17  11  78 W16       29.84S WCI   1
LAND O LAKES   LGT SNOW  17  13  84 W9G17     29.85S WCI   5
PHILLIPS       FLURRIES  16  11  83 W12G18    29.91R WCI   2
TOMAHAWK       LGT SNOW  16  11  79 W8G20     29.91S WCI   5
MEDFORD        FLURRIES  15   9  76 W14G21    29.94S WCI   1
MERRILL        FLURRIES  17  11  75 W17       29.94S WCI   1
$$

WIZ029-030-035-036-043>047-080400-
CENTRAL WISCONSIN

CITY           SKY/WX    TMP DP  RH WIND       PRES   REMARKS
WAUSAU         FLURRIES  18  11  74 W13G23    29.95S WCI   5
MOSINEE        FLURRIES  18  12  79 W16G25    29.97S WCI   3
MARSHFIELD     CLOUDY    17  10  74 W18G26    29.97F WCI   1
STEVENS POINT  FLURRIES  17  10  73 W16G23    29.99S WCI   2
WAUPACA        CLOUDY    23  13  66 W16G22    30.02R WCI   9
WAUTOMA        NOT AVBL
WISC RAPIDS    CLOUDY    19  12  74 W13       30.03S WCI   6
CAMP DOUGLAS   NOT AVBL
$$

WIZ011>013-019>022-031-037>040-048>050-080400-
NORTHEAST WISCONSIN

CITY           SKY/WX    TMP DP  RH WIND       PRES   REMARKS
ANTIGO         CLOUDY    16  10  77 W18G26    29.90S WCI   0
SHAWANO        CLOUDY    23  13  65 W14G24    29.97R WCI  11
OCONTO         CLOUDY    23  12  63 W16G22    29.96S WCI   9
STURGEON BAY   CLOUDY    23  14  68 W17G25    29.95R WCI   9
GREEN BAY      CLOUDY    24  14  65 W14G25    29.99R WCI  12
MANITOWOC      NOT AVBL
APPLETON       CLOUDY    21  10  63 W18G26    29.99R WCI   6
CLINTONVILLE   CLOUDY    21  12  68 W18G25    29.99R WCI   6
OSHKOSH        CLOUDY    21  12  68 W15G22    30.02R WCI   8
$$

WIZ032>034-041-042-053>061-080400-
SOUTHWEST WISCONSIN

CITY           SKY/WX    TMP DP  RH WIND       PRES   REMARKS
LA CROSSE      CLOUDY    22  12  65 W18G25    30.13R WCI   7
SPARTA         FLURRIES  20  13  73 W9G20     30.09S WCI  10
VIROQUA        CLOUDY    19  13  77 W13G22    30.08S WCI   5
BOSCOBEL       CLOUDY    23  13  65 W16       30.15S WCI  10
PRAIRIE DU CHI FLURRIES  23  13  65 W16G22    30.17R WCI  10
PLATTEVILLE    CLOUDY    23  17  77 W21       30.13F WCI   8
$$

WIZ056-057-062-063-064-067-068-080400-
SOUTH CENTRAL WISCONSIN

CITY           SKY/WX    TMP DP  RH WIND       PRES   REMARKS
REEDSBURG      FLURRIES  20  13  74 W13G21    30.08S WCI   7
BARABOO/DELLS  FLURRIES  20  12  71 W12G21    30.07S WCI   8
LONE ROCK      LGT SNOW  22  14  71 W12       30.13S WCI  10
MINERAL POINT  FLURRIES  23  18  80 W17       30.09F WCI   9
MADISON        FLURRIES  20  12  71 W14G21    30.09S WCI   7
MIDDLETON      CLOUDY    22  15  73 W13G24    30.09F WCI  10
WATERTOWN      FLURRIES  20  14  77 W16G22    30.08S WCI   6
MONROE         CLOUDY    23  16  74 W18G24    30.10F WCI   9
JANESVILLE     CLOUDY    23  16  74 W15G23    30.11F WCI  10
$$

WIZ051-052-058>065-066-070>072-080400-
SOUTHEAST WISCONSIN

CITY           SKY/WX    TMP DP  RH WIND       PRES   REMARKS
MILWAUKEE      FLURRIES  23  12  62 W17G30    30.08F WCI   9
WAUKESHA       FLURRIES  19  12  73 W17G24    30.07F WCI   4
MILWAUKEE/TIMM CLOUDY    21  10  63 W22G31    30.07F WCI   5
RACINE         CLOUDY    22  12  65 W14G25    30.10S WCI   9
BURLINGTON     CLOUDY    21  14  73 W18G25    30.09F WCI   6
KENOSHA        CLOUDY    22  13  68 W25G37    30.09S WCI   5
FOND DU LAC    CLOUDY    22  11  62 W14G21    30.04R WCI   9
SHEBOYGAN      FLURRIES  22  14  71 W18       30.03R WCI   7
WEST BEND      FLURRIES  21  16  79 W20       30.04S WCI   6
JUNEAU         FLURRIES  19  12  74 W20       30.07S WCI   4
$$

LSZ147-162-080400-
LAKE SUPERIOR

STATION/POSITION TIME  TEMP    WIND        PRES    WAVE
                       AIR SEA DIR/SP/G            HT/PER
                 (UTC) (F)     (DEG/KT/KT) (MB)    (FT/S)
DEVILS ISLAND    0200   25     270/ 29/ 34 1012.0R
PORT WING        0240   21     230/ 14/ 21 1013.5R
SAXON HARBOR     0240   19     210/ 10/ 19 1012.9R
$$

LMZ867-665-643>646-080400-
LAKE MICHIGAN

STATION/POSITION TIME  TEMP    WIND        PRES    WAVE
                       AIR SEA DIR/SP/G            HT/PER
                 (UTC) (F)     (DEG/KT/KT) (MB)    (FT/S)
CHAMBERS ISLAND  0240   24     240/ 13/ 21 1012.9R
NORTHPORT PIER   0240   25     270/  6/ 16 1012.9S
SISTER BAY       0221   27     280/ 23/ 27   N/A
ALGOMA LAKESHORE 0106          270/ 15/ 24   N/A
KEWAUNEE LAKESHO 0230   24     330/ 14/ 24 1014.5F
SHEBOYGAN LAKESH 0200   23     250/ 13/ 18 1017.6R
PORT WASHINGTON  0240   23     270/ 10/ 20 1018.6S
MILWAUKEE LAKESH 0230   22     270/ 20/ 25   N/A
KENOSHA   LAKESH 0200   22     270/ 21/ 30 1019.3
$$

TC  - TEMPERATURE IN CELSIUS
VSB - VISIBILITY IN STATUTE MILES
WCI - WIND CHILL INDEX
HX  - HEAT INDEX




USA.gov is the U.S. government's official web portal to all federal, state and local government web resources and services.